Dickinson, ND

12:25 PM MST on February 26, 2017 (GMT -0700)
Dickinson Municipal

Weather History for KDIK - January, 2013

Change the Weather History Date:

Tuesday, January 1, 2013

  Actual Average Record
Temperature  
Mean Temperature 15 °F 16 °F  
Max Temperature 28 °F 26 °F 54 °F (1998)
Min Temperature 1 °F 6 °F -35 °F (1928)
Degree Days  
Heating Degree Days 50 49  
Month to date heating degree days 50 49  
Since 1 July heating degree days 3441 3586  
Cooling Degree Days 0 0  
Month to date cooling degree days 0 0  
Year to date cooling degree days 0 0  
Moisture  
Dew Point 16 °F    
Average Humidity 84    
Maximum Humidity 95    
Minimum Humidity 73    
Precipitation  
Precipitation 0.01 in 0.01 in 0.23 in (1976)
Month to date precipitation 0.01 0.01  
Year to date precipitation 0.01 0.01  
Sea Level Pressure  
Sea Level Pressure 30.02 in    
Wind  
Wind Speed 13 mph (West)    
Max Wind Speed 26 mph    
Max Gust Speed 32 mph    
Visibility 8 miles    
Events Fog , Snow    
T = Trace of Precipitation, MM = Missing Value Source: NWS Daily Summary

Daily Weather History Graph

Daily Weather History Graph

Search for Another Location

Airport or City:

Trip Planner

Search our weather history database for the weather conditions in past years. The results will help you decide how hot, cold, wet, or windy it might be!

Date:

Astronomy

Jan. 01, 2013 Rise Set
Actual Time 7:36 AM MST 4:13 PM MST
Civil Twilight 7:01 AM MST 4:49 PM MST
Nautical Twilight 6:22 AM MST 5:27 PM MST
Astronomical Twilight 5:45 AM MST 6:04 PM MST
Moon 9:05 PM MST (1/1) 9:32 AM MST (1/1)
Length of Visible Light 9h 47m
Length of Day
8h 37m
Waning Gibbous, 83% of the Moon is Illuminated
Jan 1
Waning Gibbous
Jan 4
Last Quarter
Jan 11
New
Jan 18
First Quarter
Jan 26
Full

Hourly Weather History & Observations

Time (MST) Temp. Windchill Dew Point Humidity Pressure Visibility Wind Dir Wind Speed Gust Speed Precip Events Conditions
12:56 AM 5.0 °F -6.9 °F 1.9 °F 87% 30.16 in 10.0 mi West 6.9 mph - N/A   Clear
1:56 AM 6.1 °F -6.8 °F 3.0 °F 87% 30.17 in 10.0 mi WSW 8.1 mph - N/A   Clear
2:56 AM 5.0 °F - 1.0 °F 84% 30.17 in 10.0 mi Calm Calm - N/A   Clear
3:56 AM 1.9 °F -11.8 °F -0.9 °F 88% 30.17 in 10.0 mi West 8.1 mph - N/A   Clear
4:56 AM 1.9 °F -7.6 °F -0.9 °F 88% 30.16 in 10.0 mi West 4.6 mph - N/A   Clear
5:56 AM 1.9 °F -5.6 °F -0.9 °F 88% 30.15 in 10.0 mi SW 3.5 mph - N/A   Clear
7:56 AM 3.9 °F -6.9 °F 1.0 °F 88% 30.13 in 10.0 mi West 5.8 mph - N/A   Clear
8:56 AM 8.1 °F -5.3 °F 3.9 °F 83% 30.12 in 10.0 mi WSW 9.2 mph - N/A   Clear
9:56 AM 12.9 °F -1.6 °F 9.0 °F 84% 30.10 in 10.0 mi West 12.7 mph - N/A   Clear
10:56 AM 16.0 °F 1.1 °F 10.9 °F 81% 30.09 in 10.0 mi West 15.0 mph - N/A   Clear
11:56 AM 18.0 °F 3.1 °F 12.0 °F 78% 30.05 in 10.0 mi West 16.1 mph - N/A   Clear
12:56 PM 19.9 °F 7.3 °F 12.9 °F 74% 30.05 in 10.0 mi West 12.7 mph - N/A   Clear
1:56 PM 23.0 °F 11.1 °F 16.0 °F 74% 30.01 in 10.0 mi West 12.7 mph - N/A   Scattered Clouds
2:56 PM 26.1 °F 14.0 °F 19.0 °F 75% 30.02 in 10.0 mi WNW 15.0 mph - N/A   Overcast
3:35 PM 24.8 °F 11.1 °F 19.4 °F 80% 29.89 in 1.8 mi WNW 18.4 mph - 0.00 in Snow Light Snow
3:43 PM 24.8 °F 10.7 °F 21.2 °F 86% 29.90 in 0.8 mi WNW 19.6 mph - 0.00 in Snow Light Snow
3:56 PM 24.1 °F 10.1 °F 21.0 °F 88% 30.05 in 0.5 mi WNW 18.4 mph - 0.00 in Fog , Snow Snow
4:06 PM 24.8 °F 11.1 °F 21.2 °F 86% 29.90 in 0.5 mi WNW 18.4 mph - 0.00 in Fog , Snow Snow
4:33 PM 24.8 °F 11.1 °F 21.2 °F 86% 29.91 in 1.0 mi WNW 18.4 mph - 0.00 in Snow Light Snow
4:56 PM 25.0 °F 12.6 °F 21.9 °F 88% 30.06 in 1.0 mi WNW 15.0 mph - 0.01 in Snow Light Snow
5:36 PM 24.8 °F 11.1 °F 21.2 °F 86% 29.91 in 2.5 mi West 18.4 mph - 0.00 in Snow Light Snow
5:45 PM 24.8 °F 11.5 °F 21.2 °F 86% 29.91 in 4.0 mi West 17.3 mph - 0.00 in Snow Light Snow
5:56 PM 25.0 °F 11.3 °F 21.9 °F 88% 30.05 in 8.0 mi West 18.4 mph - 0.00 in Snow Light Snow
6:20 PM 26.6 °F 12.7 °F 23.0 °F 86% 29.91 in 10.0 mi WNW 20.7 mph - 0.00 in   Overcast
6:56 PM 27.0 °F 12.8 °F 24.1 °F 89% 30.05 in 10.0 mi WNW 21.9 mph - 0.00 in   Overcast
7:53 PM 26.6 °F 12.7 °F 23.0 °F 86% 29.92 in 10.0 mi WNW 20.7 mph - N/A   Mostly Cloudy
7:56 PM 26.1 °F 12.7 °F 23.0 °F 88% 30.06 in 10.0 mi WNW 18.4 mph - N/A   Mostly Cloudy
8:04 PM 26.6 °F 13.4 °F 23.0 °F 86% 29.92 in 10.0 mi WNW 18.4 mph - N/A   Mostly Cloudy
8:19 PM 26.6 °F 13.1 °F 23.0 °F 86% 29.92 in 10.0 mi WNW 19.6 mph - N/A   Overcast
8:56 PM 25.0 °F 12.2 °F 21.0 °F 85% 30.05 in 10.0 mi WNW 16.1 mph - N/A   Scattered Clouds
9:56 PM 23.0 °F 8.3 °F 19.9 °F 88% 30.04 in 10.0 mi WNW 19.6 mph - N/A   Clear
10:24 PM 24.8 °F 9.6 °F 21.2 °F 86% 29.91 in 10.0 mi WNW 23.0 mph - N/A   Mostly Cloudy
10:56 PM 26.1 °F 11.6 °F 21.9 °F 84% 30.03 in 9.0 mi WNW 21.9 mph 32.2 mph N/A   Overcast
11:42 PM 26.6 °F 12.4 °F 21.2 °F 80% 29.92 in 9.0 mi WNW 21.9 mph - 0.00 in   Overcast
11:53 PM 26.6 °F 12.4 °F 21.2 °F 80% 29.92 in 9.0 mi WNW 21.9 mph - 0.00 in Snow Light Snow
11:56 PM 26.1 °F 11.3 °F 23.0 °F 88% 30.04 in 9.0 mi WNW 23.0 mph - 0.00 in   Overcast